Date,TemperatureHighF,TemperatureAvgF,TemperatureLowF,DewpointHighF,DewpointAvgF,DewpointLowF,HumidityHigh,HumidityAvg,HumidityLow,PressureMaxIn,PressureMinIn,WindSpeedMaxMPH,WindSpeedAvgMPH,GustSpeedMaxMPH,PrecipitationSumIn
2014-2-1,46,34,25,29,25,23,95,74,47,30.24,29.93,4,0,0,0.00
2014-2-2,53,39,27,40,34,27,99,82,56,29.99,29.81,3,0,0,0.00
2014-2-3,39,31,24,35,30,24,99,97,83,30.23,29.98,2,0,0,0.00
2014-2-4,41,25,11,29,22,11,99,90,57,30.40,30.17,0,0,0,0.06
2014-2-5,35,31,28,34,30,27,99,99,95,30.16,29.56,0,0,0,0.00
2014-2-6,33,25,20,27,20,14,97,80,55,30.21,29.87,0,0,0,0.00
2014-2-7,36,26,17,19,17,12,98,71,44,30.25,30.13,1,0,0,0.02
2014-2-8,32,23,12,18,10,2,90,61,35,30.25,30.06,2,0,0,0.00
2014-2-9,33,22,10,24,15,8,97,77,47,30.12,29.90,3,0,0,0.00
2014-2-10,32,21,10,19,12,8,99,71,42,30.19,29.90,6,2,0,0.00
2014-2-11,29,16,5,9,6,4,96,67,39,30.39,30.19,7,2,0,0.00
2014-2-12,28,15,1,14,6,0,95,71,38,30.51,30.20,4,1,0,0.00
2014-2-13,33,29,21,33,28,15,99,98,77,30.20,28.88,5,1,0,1.91
2014-2-14,43,34,26,32,29,25,99,81,55,29.68,28.90,10,1,0,1.14
2014-2-15,39,30,24,31,27,18,99,88,61,29.69,29.48,7,2,0,0.07
2014-2-16,32,24,18,18,13,9,76,61,44,30.00,29.65,9,4,0,0.00
2014-2-17,34,22,15,16,8,1,86,58,30,30.30,30.02,7,2,0,0.01
2014-2-18,42,30,20,34,25,12,99,82,57,30.23,29.86,8,1,0,0.26
2014-2-19,42,31,20,39,30,20,99,95,68,30.00,29.60,4,0,0,0.24
2014-2-20,51,38,25,36,30,25,99,78,40,30.16,29.89,5,1,0,0.01
2014-2-21,42,37,29,42,36,29,99,99,99,29.93,29.57,10,1,0,0.09
2014-2-22,54,37,24,35,28,23,99,74,34,29.96,29.82,6,1,0,0.00
2014-2-23,55,40,26,33,30,26,99,72,40,29.93,29.72,4,1,0,0.00
2014-2-24,42,34,24,32,17,8,70,50,35,29.98,29.69,8,3,0,0.00
2014-2-25,34,24,14,19,13,8,87,62,44,30.00,29.84,8,1,0,0.00
2014-2-26,33,22,10,24,12,-2,93,65,36,29.90,29.74,9,1,0,0.00
2014-2-27,32,19,6,17,6,-11,95,61,35,30.03,29.54,11,3,0,0.00
2014-2-28,27,15,7,7,-2,-11,88,49,31,30.36,30.04,6,2,0,0.00